Flag for Germany Weather past 2 weeks in Landshut, Bavaria, Germany

48 °F

Light rain. Passing clouds.

Feels Like: 40 °F
Forecast: 35 / 48 °F
Wind: 26 mph from West

Location: Munich / Franz Josef Strauss Airport

Current Time: Dec 1, 2015 at 1:53:00 AM

Latest Report: Dec 1, 2015 at 1:20 AM

Visibility: N/A

Pressure: 30.12 "Hg

Humidity: 76%

Dew point: 41 °F

Location of LandshutLocation

Historic Weather in Landshut — Graph


Landshut temperature yesterday

Maximum temperature yesterday: 50 °F (at 11:50 AM)
Minimum temperature yesterday: 48 °F (at 12:50 AM)
Average temperature yesterday: 49 °F

Past Weeks' High & Low Weather Summary

High66 °F (Nov 16, 12:20 PM)100% (Nov 17, 1:20 AM)30.27 "Hg (Nov 17, 1:20 AM)
Low21 °F (Nov 24, 3:20 AM)43% (Nov 16, 12:50 PM)29.42 "Hg (Nov 21, 1:20 PM)
Average42 °F82%29.96 "Hg
* Reported Nov 16 12:20 AM — Dec 1 12:50 AM, Landshut, Weather by CustomWeather, © 2015

Note: Actual official high and low records may vary slightly from our data, if they occured in-between our weather recording intervals... More about our weather records


Landshut weather history for previous 24 hours

Time TempWeatherWind HumidityBarometerVisibility
12:50 AM
Tue, Dec 1
48 °FLight rain. Passing clouds.32 mph76%30.12 "HgN/A
11:50 PM
Mon, Nov 30
50 °FLight rain. Passing clouds.33 mph67%30.09 "HgN/A
11:20 PM50 °FLight rain. Passing clouds.40 mph62%30.09 "HgN/A
10:50 PM50 °FLight rain. Passing clouds.39 mph62%30.09 "HgN/A
10:20 PM50 °FPassing clouds.38 mph62%30.09 "HgN/A
9:50 PM50 °FPassing clouds.35 mph62%30.09 "HgN/A
9:20 PM50 °FPassing clouds.33 mph62%30.12 "HgN/A
8:50 PM50 °FClear.28 mph62%30.12 "Hg10 mi
8:20 PM48 °FPassing clouds.29 mph66%30.12 "HgN/A
7:50 PM50 °FPartly cloudy.31 mph67%30.12 "HgN/A
7:20 PM50 °FPassing clouds.31 mph67%30.12 "HgN/A
6:50 PM48 °FClear.30 mph71%30.12 "Hg10 mi
6:20 PM48 °FPartly cloudy.29 mph71%30.15 "HgN/A
5:50 PM48 °FPassing clouds.26 mph71%30.15 "HgN/A
5:20 PM48 °FPassing clouds.29 mph76%30.15 "HgN/A
4:50 PM48 °FPassing clouds.29 mph71%30.15 "HgN/A
4:20 PM50 °FPartly sunny.30 mph67%30.15 "HgN/A
3:50 PM50 °FPartly sunny.29 mph67%30.15 "HgN/A
3:20 PM50 °FBroken clouds.31 mph67%30.15 "HgN/A
2:50 PM50 °FBroken clouds.31 mph67%30.15 "HgN/A
2:20 PM50 °FLight rain. Partly sunny.31 mph67%30.18 "HgN/A
1:50 PM50 °FLight rain. Broken clouds.32 mph71%30.18 "HgN/A
1:20 PM50 °FLight rain. Broken clouds.32 mph71%30.18 "HgN/A
12:50 PM50 °FLight rain. Broken clouds.33 mph71%30.18 "HgN/A
12:20 PM50 °FLight rain. Broken clouds.35 mph71%30.18 "HgN/A
11:50 AM50 °FLight rain. More clouds than sun.33 mph71%30.18 "HgN/A
11:20 AM48 °FLight rain. Broken clouds.32 mph76%30.21 "HgN/A
10:50 AM48 °FLight rain. Partly sunny.32 mph76%30.21 "HgN/A
10:20 AM48 °FLight rain. Partly sunny.36 mph76%30.18 "HgN/A
9:50 AM48 °FLight rain. Broken clouds.36 mph76%30.18 "HgN/A
9:20 AM48 °FLight rain. Partly sunny.33 mph76%30.18 "HgN/A
8:20 AM48 °FLight rain. Partly sunny.32 mph76%30.15 "HgN/A
7:50 AM48 °FLight rain. Partly sunny.32 mph71%30.15 "HgN/A
7:20 AM48 °FLight rain. Passing clouds.38 mph76%30.12 "HgN/A
6:50 AM48 °FLight rain. Partly cloudy.36 mph71%30.12 "HgN/A
6:20 AM48 °FLight rain. Passing clouds.36 mph71%30.12 "HgN/A
5:50 AM48 °FPartly cloudy.35 mph71%30.09 "HgN/A
5:20 AM48 °FPartly cloudy.33 mph71%30.12 "HgN/A
4:20 AM48 °FPartly cloudy.38 mph71%30.12 "HgN/A
3:50 AM48 °FPartly cloudy.38 mph71%30.09 "HgN/A
3:20 AM48 °FPassing clouds.36 mph71%30.09 "HgN/A
2:50 AM48 °FPassing clouds.38 mph71%30.09 "HgN/A
2:20 AM48 °FPartly cloudy.39 mph71%30.09 "HgN/A
1:20 AM48 °FClear.31 mph71%30.12 "Hg10 mi
Weather by CustomWeather, © 2015

See weather overviewHow to use our weather pages